This demonstration page uses our WeatherBlox Daily Observations layout. Learn more.

36.17497, -115.13722

Hourly Observations for June 12, 2015

Temp ( °F °C ) Dew Point ( °F °C ) Humidity (%) Winds ( mph kmh ) Pressure ( in mb ) Visibility ( mi km ) Precip ( " mm )
12:53 am 00:53 Clear 84 28.9 49 9.4 30 30 N 10 17 29.76 1008 10 16.0934 0 0
1:53 am 01:53 Clear 82 27.8 50 10 33 33 N 14 22 29.75 1007 10 16.0934 0 0
2:53 am 02:53 Clear 82 27.8 50 10 33 33 NNW 16 26 29.75 1007 10 16.0934 0 0
3:53 am 03:53 Clear 80 26.7 50 10 35 35 N 10 17 29.75 1008 10 16.0934 0 0
4:53 am 04:53 Clear 79 26.1 50 10 36 36 N 13 20 29.75 1008 10 16.0934 0 0
5:53 am 05:53 Sunny 79 26.1 51 10.6 38 38 N 9 15 29.78 1008 10 16.0934 0 0
6:53 am 06:53 Sunny 80 26.7 51 10.6 37 37 N 6 9 29.79 1009 10 16.0934 0 0
7:53 am 07:53 Sunny 84 28.9 50 10 31 31 N 15 24 29.8 1009 10 16.0934 0 0
8:53 am 08:53 Sunny 86 30 49 9.4 28 28 NNE 7 11 29.8 1009 10 16.0934 0 0
9:53 am 09:53 Sunny 87 30.6 47 8.3 25 25 VRB 3 6 29.79 1009 10 16.0934 0 0
10:53 am 10:53 Sunny 90 32.2 48 8.9 24 24 VRB 3 6 29.78 1009 10 16.0934 0 0
11:53 am 11:53 Sunny 92 33.3 47 8.3 21 21 Calm 29.77 1008 10 16.0934 0 0
12:53 pm 12:53 Sunny 95 35 46 7.8 19 19 SSE 7 11 29.74 1007 10 16.0934 0 0
1:53 pm 13:53 Sunny 97 36.1 45 7.2 17 17 VRB 3 6 29.71 1006 10 16.0934 0 0
2:53 pm 14:53 Sunny 97 36.1 44 6.7 16 16 WNW 10 17 29.69 1006 10 16.0934 0 0
3:53 pm 15:53 Sunny 98 36.7 41 5 14 14 NNW 7 11 29.67 1005 10 16.0934 0 0
4:53 pm 16:53 Sunny 99 37.2 40 4.4 13 13 VRB 7 11 29.65 1004 10 16.0934 0 0
5:53 pm 17:53 Sunny 99 37.2 38 3.3 12 12 ENE 9 15 29.64 1004 10 16.0934 0 0
6:53 pm 18:53 Sunny 97 36.1 37 2.8 12 12 N 13 20 29.65 1004 10 16.0934 0 0
7:53 pm 19:53 Sunny 94 34.4 42 5.6 17 17 N 12 19 29.66 1004 10 16.0934 0 0
8:53 pm 20:53 Clear 93 33.9 42 5.6 17 17 NW 10 17 29.67 1005 10 16.0934 0 0
9:53 pm 21:53 Clear 93 33.9 41 5 16 16 N 7 11 29.68 1005 10 16.0934 0 0
10:53 pm 22:53 Clear 91 32.8 43 6.1 19 19 NNW 8 13 29.67 1005 10 16.0934 0 0
11:53 pm 23:53 Clear 90 32.2 42 5.6 19 19 N 9 15 29.67 1005 10 16.0934 0 0

Powered by AerisWeather